Location: Devargunta
(16.7631°N, 80.9077°E)
Time: 15:57:47
(UTC+00:00)

Atlas Centaur 2 - Pass Details

Date: 19 January 2021
Orbit: 459 x 1309 km, 30.4° (Epoch: 25 February)

Event Time Altitude Azimuth Distance (km) Brightness Sun altitude
Exits shadow 23:44:12 30° 300° (WNW) 2,000 3.6 -20.1°
Maximum altitude 23:47:19 42° 345° (NNW) 1,715 3.5 -19.4°
Drops below altitude 10° 23:55:17 10° 53° (NE) 3,318 5.8 -17.6°
Sets 23:58:30 0° 60° (ENE) 4,282 6.5 -16.8°
